This is the latest recevied weather packets stored in our database for station/object ZL1CTS-13. If no packets are shown the sender has not sent any weather packets the latest 10 day(s).
| Time | Temp. | Humidity | Pressure | Rain* | Wind** | Luminosity | Snow |
|---|---|---|---|---|---|---|---|
| 1788232204 | 16.11° C | 58% | 1005.6 hPa | 0 mm | - | - | - |
| 1788231904 | 16.11° C | 58% | 1005.4 hPa | 0 mm | - | - | - |
| 1788231605 | 16.11° C | 60% | 1005.3 hPa | 0 mm | - | - | - |
| 1788231604 | 16.11° C | 60% | 1005.3 hPa | 0 mm | - | - | - |
| 1788231304 | 16.11° C | 58% | 1005.4 hPa | 0 mm | - | - | - |
| 1788231004 | 16.11° C | 59% | 1005.2 hPa | 0 mm | - | - | - |
| 1788230704 | 16.67° C | 62% | 1005.2 hPa | 0 mm | - | - | - |
| 1788230703 | 16.67° C | 62% | 1005.2 hPa | 0 mm | - | - | - |
| 1788230404 | 16.67° C | 62% | 1005.3 hPa | 0 mm | - | - | - |
| 1788230104 | 16.11° C | 62% | 1005 hPa | 0 mm | - | - | - |
| 1788229805 | 16.11° C | 60% | 1005 hPa | 0 mm | - | - | - |
| 1788229804 | 16.11° C | 60% | 1005 hPa | 0 mm | - | - | - |
| 1788229504 | 16.67° C | 63% | 1005 hPa | 0 mm | - | - | - |
| 1788229204 | 16.11° C | 61% | 1005 hPa | 0 mm | - | - | - |
| 1788228905 | 16.67° C | 63% | 1005.1 hPa | 0 mm | - | - | - |
| 1788228904 | 16.67° C | 63% | 1005.1 hPa | 0 mm | - | - | - |
| 1788228604 | 16.67° C | 63% | 1005 hPa | 0 mm | - | - | - |
| 1788228304 | 16.11° C | 61% | 1005 hPa | 0 mm | - | - | - |
| 1788228005 | 16.11° C | 61% | 1005.1 hPa | 0 mm | - | - | - |
| 1788228004 | 16.11° C | 61% | 1005.1 hPa | 0 mm | - | - | - |
| 1788227704 | 16.67° C | 62% | 1005 hPa | 0 mm | - | - | - |
| 1788227404 | 16.67° C | 61% | 1005.1 hPa | 0 mm | - | - | - |
| 1788227105 | 16.67° C | 63% | 1005.3 hPa | 0 mm | - | - | - |
| 1788227104 | 16.67° C | 63% | 1005.3 hPa | 0 mm | - | - | - |
| 1788226804 | 16.67° C | 63% | 1005.3 hPa | 0 mm | - | - | - |
* Rain latest hour (hover to see other rain measurements)
** Current wind speed in m/s (hover to see current wind gust speed)